N2WW MBOI-KMAF

Flight info

Callsign N2WW
Flight time N/A
Altitude 33000
Route GOWEN4 BOI PVU DRO MAF DCT
Aircraft MD82/M-L/C

Departure

Time N/A
Airport MBOI

Arrival

Time 2026-04-26 17:37
Airport Midland International Air and Space Port (KMAF)
Time Latitude Longitude Altitude Speed Heading
2026-04-26 15:16 43.56782 -116.22415 2847 ft 0 kts 101°
2026-04-26 15:17 43.56781 -116.22409 2847 ft 2 kts 114°
2026-04-26 15:18 43.56723 -116.22347 2848 ft 18 kts 145°
2026-04-26 15:18 43.56619 -116.22156 2852 ft 32 kts 117°
2026-04-26 15:18 43.56503 -116.21817 2855 ft 46 kts 116°
2026-04-26 15:18 43.56356 -116.21388 2860 ft 48 kts 115°
2026-04-26 15:19 43.56257 -116.21098 2861 ft 23 kts 116°
2026-04-26 15:19 43.56194 -116.20911 2863 ft 18 kts 119°
2026-04-26 15:19 43.56092 -116.20895 2862 ft 15 kts 201°
2026-04-26 15:19 43.56000 -116.20950 2861 ft 12 kts 204°
2026-04-26 15:20 43.55925 -116.20978 2860 ft 10 kts 182°
2026-04-26 15:20 43.55899 -116.21016 2859 ft 4 kts 280°
2026-04-26 15:20 43.55900 -116.21024 2859 ft 0 kts 287°
2026-04-26 15:21 43.55969 -116.21247 2858 ft 68 kts 295°
2026-04-26 15:21 43.56300 -116.22216 2851 ft 154 kts 295°
2026-04-26 15:21 43.56780 -116.23691 3602 ft 176 kts 292°
2026-04-26 15:22 43.57090 -116.25357 4404 ft 198 kts 266°
2026-04-26 15:22 43.56446 -116.27140 5043 ft 232 kts 223°
2026-04-26 15:22 43.54931 -116.28071 5768 ft 254 kts 183°
2026-04-26 15:22 43.53174 -116.27728 6837 ft 265 kts 171°
2026-04-26 15:23 43.51364 -116.27797 7827 ft 272 kts 197°
2026-04-26 15:23 43.49746 -116.29086 8852 ft 277 kts 225°
2026-04-26 15:23 43.48514 -116.31113 9880 ft 281 kts 232°
2026-04-26 15:23 43.47333 -116.33252 10883 ft 286 kts 233°
2026-04-26 15:24 43.46142 -116.35444 11889 ft 290 kts 233°
2026-04-26 15:24 43.44935 -116.37658 12891 ft 294 kts 233°
2026-04-26 15:24 43.43965 -116.40105 13875 ft 299 kts 258°
2026-04-26 15:24 43.44085 -116.42910 14913 ft 304 kts 290°
2026-04-26 15:25 43.45231 -116.45305 15945 ft 309 kts 319°
2026-04-26 15:25 43.46420 -116.46334 16627 ft 312 kts 339°
2026-04-26 15:25 43.49266 -116.46542 18007 ft 319 kts 17°
2026-04-26 15:25 43.51157 -116.45016 19039 ft 324 kts 46°
2026-04-26 15:26 43.52320 -116.42390 20075 ft 328 kts 74°
2026-04-26 15:26 43.52688 -116.39305 21118 ft 331 kts 83°
2026-04-26 15:26 43.52977 -116.36159 22121 ft 335 kts 83°
2026-04-26 15:26 43.53254 -116.33028 23105 ft 337 kts 83°
2026-04-26 15:27 43.53537 -116.29832 24103 ft 338 kts 83°
2026-04-26 15:27 43.53820 -116.26629 25041 ft 340 kts 83°
2026-04-26 15:27 43.54091 -116.23342 25649 ft 351 kts 88°
2026-04-26 15:27 43.53720 -116.20044 26307 ft 359 kts 104°
2026-04-26 15:28 43.53097 -116.16682 26943 ft 368 kts 110°
2026-04-26 15:28 43.51696 -116.13747 27598 ft 374 kts 137°
2026-04-26 15:28 43.49793 -116.11261 28274 ft 382 kts 133°
2026-04-26 15:28 43.47969 -116.08627 28906 ft 390 kts 134°
2026-04-26 15:29 43.46085 -116.05904 29541 ft 397 kts 134°
2026-04-26 15:29 43.44162 -116.03130 30176 ft 405 kts 134°
2026-04-26 15:29 43.40244 -115.97485 31433 ft 418 kts 134°
2026-04-26 15:30 43.36171 -115.91628 32671 ft 430 kts 134°
2026-04-26 15:30 43.34092 -115.88643 32794 ft 447 kts 134°
2026-04-26 15:30 43.31901 -115.85501 32818 ft 461 kts 134°
2026-04-26 15:31 43.26965 -115.78436 32802 ft 465 kts 134°
2026-04-26 15:32 43.21762 -115.71007 32807 ft 463 kts 134°
2026-04-26 15:32 43.15838 -115.62572 32807 ft 463 kts 134°
2026-04-26 15:33 43.11361 -115.56213 32807 ft 463 kts 134°
2026-04-26 15:33 43.06932 -115.49938 32807 ft 463 kts 134°
2026-04-26 15:34 43.02449 -115.43600 32807 ft 463 kts 134°
2026-04-26 15:34 42.97989 -115.37309 32807 ft 463 kts 134°
2026-04-26 15:35 42.94096 -115.31829 32807 ft 463 kts 134°
2026-04-26 15:36 42.91859 -115.28683 32808 ft 477 kts 134°
2026-04-26 15:36 42.89522 -115.25404 32817 ft 486 kts 134°
2026-04-26 15:36 42.84827 -115.18823 32806 ft 488 kts 134°
2026-04-26 15:37 42.80103 -115.12218 32805 ft 486 kts 134°
2026-04-26 15:37 42.75408 -115.05669 32806 ft 485 kts 134°
2026-04-26 15:38 42.70721 -114.99146 32807 ft 485 kts 134°
2026-04-26 15:38 42.66024 -114.92623 32807 ft 485 kts 134°
2026-04-26 15:39 42.61286 -114.86060 32807 ft 485 kts 134°
2026-04-26 15:39 42.58149 -114.81722 32808 ft 485 kts 134°
2026-04-26 15:40 42.51865 -114.73053 32808 ft 485 kts 134°
2026-04-26 15:40 42.47147 -114.66562 32809 ft 485 kts 134°
2026-04-26 15:41 42.42421 -114.60074 32809 ft 485 kts 134°
2026-04-26 15:41 42.37695 -114.53601 32809 ft 485 kts 134°
2026-04-26 15:42 42.32968 -114.47141 32810 ft 485 kts 134°
2026-04-26 15:42 42.28230 -114.40681 32810 ft 485 kts 134°
2026-04-26 15:43 42.23481 -114.34221 32810 ft 485 kts 135°
2026-04-26 15:44 42.16379 -114.24588 32808 ft 485 kts 135°
2026-04-26 15:44 42.09272 -114.14980 32808 ft 485 kts 135°
2026-04-26 15:45 42.02127 -114.05352 32809 ft 485 kts 135°
2026-04-26 15:46 41.95001 -113.95784 32810 ft 485 kts 135°
2026-04-26 15:46 41.93201 -113.93372 32810 ft 485 kts 135°
2026-04-26 15:47 41.89525 -113.88451 32818 ft 500 kts 135°
2026-04-26 15:47 41.84607 -113.81884 32806 ft 501 kts 135°
2026-04-26 15:48 41.79677 -113.75314 32806 ft 499 kts 135°
2026-04-26 15:48 41.74785 -113.68811 32807 ft 499 kts 135°
2026-04-26 15:49 41.69860 -113.62277 32808 ft 499 kts 135°
2026-04-26 15:49 41.64961 -113.55794 32809 ft 499 kts 135°
2026-04-26 15:50 41.60027 -113.49280 32809 ft 499 kts 135°
2026-04-26 15:50 41.55125 -113.42821 32810 ft 499 kts 135°
2026-04-26 15:51 41.50176 -113.36314 32811 ft 499 kts 135°
2026-04-26 15:51 41.45253 -113.29858 32806 ft 499 kts 136°
2026-04-26 15:52 41.40332 -113.23418 32807 ft 499 kts 136°
2026-04-26 15:52 41.35396 -113.16975 32807 ft 499 kts 136°
2026-04-26 15:53 41.30459 -113.10544 32808 ft 499 kts 136°
2026-04-26 15:53 41.25512 -113.04114 32809 ft 499 kts 136°
2026-04-26 15:54 41.20568 -112.97701 32809 ft 499 kts 136°
2026-04-26 15:54 41.15610 -112.91286 32810 ft 499 kts 136°
2026-04-26 15:55 41.10654 -112.84888 32811 ft 499 kts 136°
2026-04-26 15:55 41.05685 -112.78486 32811 ft 499 kts 136°
2026-04-26 15:56 41.00725 -112.72109 32812 ft 499 kts 136°
2026-04-26 15:56 40.95758 -112.65740 32813 ft 499 kts 136°
2026-04-26 15:57 40.90791 -112.59383 32813 ft 499 kts 136°
2026-04-26 15:57 40.85813 -112.53027 32808 ft 499 kts 136°
2026-04-26 15:58 40.80841 -112.46692 32808 ft 499 kts 136°
2026-04-26 15:58 40.75879 -112.40385 32809 ft 499 kts 136°
2026-04-26 15:59 40.70887 -112.34051 32807 ft 499 kts 136°
2026-04-26 15:59 40.65906 -112.27747 32805 ft 499 kts 137°
2026-04-26 16:00 40.60930 -112.21461 32805 ft 499 kts 137°
2026-04-26 16:00 40.55941 -112.15174 32806 ft 499 kts 137°
2026-04-26 16:01 40.50912 -112.08851 32807 ft 499 kts 137°
2026-04-26 16:01 40.45922 -112.02590 32807 ft 499 kts 137°
2026-04-26 16:02 40.40919 -111.96326 32808 ft 499 kts 137°
2026-04-26 16:02 40.35914 -111.90073 32809 ft 499 kts 137°
2026-04-26 16:03 40.30904 -111.83827 32809 ft 499 kts 137°
2026-04-26 16:03 40.25889 -111.77588 32810 ft 499 kts 137°
2026-04-26 16:04 40.20916 -111.71318 32809 ft 499 kts 134°
2026-04-26 16:04 40.16156 -111.64748 32811 ft 499 kts 133°
2026-04-26 16:05 40.11401 -111.58180 32812 ft 499 kts 133°
2026-04-26 16:05 40.06644 -111.51626 32813 ft 499 kts 133°
2026-04-26 16:06 40.01893 -111.45094 32813 ft 499 kts 133°
2026-04-26 16:06 39.97132 -111.38564 32814 ft 499 kts 133°
2026-04-26 16:07 39.92358 -111.32030 32809 ft 499 kts 134°
2026-04-26 16:07 39.87582 -111.25507 32804 ft 499 kts 134°
2026-04-26 16:08 39.82821 -111.19019 32804 ft 499 kts 134°
2026-04-26 16:08 39.78051 -111.12532 32805 ft 499 kts 134°
2026-04-26 16:09 39.73253 -111.06020 32805 ft 499 kts 134°
2026-04-26 16:09 39.68478 -110.99554 32806 ft 499 kts 134°
2026-04-26 16:10 39.63670 -110.93058 32807 ft 499 kts 134°
2026-04-26 16:10 39.58892 -110.86616 32807 ft 499 kts 134°
2026-04-26 16:11 39.54089 -110.80153 32808 ft 499 kts 134°
2026-04-26 16:11 39.49276 -110.73692 32809 ft 499 kts 134°
2026-04-26 16:12 39.44494 -110.67285 32809 ft 499 kts 134°
2026-04-26 16:12 39.37270 -110.57632 32810 ft 499 kts 134°
2026-04-26 16:13 39.32450 -110.51208 32811 ft 499 kts 134°
2026-04-26 16:13 39.27661 -110.44840 32812 ft 499 kts 134°
2026-04-26 16:14 39.22829 -110.38427 32812 ft 499 kts 134°
2026-04-26 16:15 39.15602 -110.28861 32808 ft 499 kts 135°
2026-04-26 16:15 39.10757 -110.22465 32808 ft 499 kts 135°
2026-04-26 16:16 39.03509 -110.12920 32809 ft 499 kts 135°
2026-04-26 16:16 38.98685 -110.06586 32810 ft 499 kts 135°
2026-04-26 16:17 38.93823 -110.00213 32811 ft 499 kts 135°
2026-04-26 16:17 38.88980 -109.93879 32808 ft 499 kts 135°
2026-04-26 16:18 38.81729 -109.84421 32806 ft 499 kts 135°
2026-04-26 16:19 38.74443 -109.74945 32807 ft 499 kts 135°
2026-04-26 16:20 38.67142 -109.65480 32808 ft 499 kts 135°
2026-04-26 16:20 38.59846 -109.56050 32809 ft 499 kts 135°
2026-04-26 16:21 38.54985 -109.49783 32810 ft 499 kts 135°
2026-04-26 16:21 38.50111 -109.43513 32811 ft 499 kts 135°
2026-04-26 16:22 38.45235 -109.37252 32811 ft 499 kts 135°
2026-04-26 16:22 38.40360 -109.31004 32806 ft 499 kts 135°
2026-04-26 16:23 38.35473 -109.24757 32807 ft 499 kts 135°
2026-04-26 16:23 38.30620 -109.18564 32807 ft 499 kts 135°
2026-04-26 16:24 38.25727 -109.12331 32808 ft 499 kts 135°
2026-04-26 16:24 38.20836 -109.06116 32809 ft 499 kts 135°
2026-04-26 16:25 38.15951 -108.99919 32809 ft 499 kts 135°
2026-04-26 16:25 38.11053 -108.93719 32810 ft 499 kts 135°
2026-04-26 16:26 38.06951 -108.88535 32811 ft 499 kts 135°
2026-04-26 16:26 38.01222 -108.81312 32811 ft 499 kts 135°
2026-04-26 16:27 37.96346 -108.75175 32812 ft 499 kts 135°
2026-04-26 16:27 37.91424 -108.68994 32813 ft 499 kts 135°
2026-04-26 16:28 37.86499 -108.62822 32807 ft 499 kts 135°
2026-04-26 16:28 37.81582 -108.56672 32808 ft 499 kts 135°
2026-04-26 16:29 37.76662 -108.50530 32809 ft 499 kts 135°
2026-04-26 16:29 37.71764 -108.44428 32809 ft 499 kts 135°
2026-04-26 16:30 37.66827 -108.38289 32810 ft 499 kts 135°
2026-04-26 16:30 37.61886 -108.32156 32805 ft 498 kts 136°
2026-04-26 16:31 37.56949 -108.26043 32805 ft 498 kts 136°
2026-04-26 16:31 37.52020 -108.19949 32806 ft 499 kts 136°
2026-04-26 16:32 37.47913 -108.14883 32807 ft 499 kts 136°
2026-04-26 16:32 37.42156 -108.07792 32807 ft 499 kts 136°
2026-04-26 16:33 37.37208 -108.01712 32808 ft 499 kts 136°
2026-04-26 16:33 37.32254 -107.95635 32809 ft 499 kts 136°
2026-04-26 16:34 37.27333 -107.89611 32809 ft 499 kts 136°
2026-04-26 16:34 37.22370 -107.83548 32810 ft 499 kts 136°
2026-04-26 16:35 37.17409 -107.77498 32811 ft 499 kts 136°
2026-04-26 16:35 37.12401 -107.71508 32811 ft 498 kts 137°
2026-04-26 16:36 37.07365 -107.65572 32812 ft 498 kts 137°
2026-04-26 16:36 37.02360 -107.59683 32813 ft 498 kts 137°
2026-04-26 16:37 36.97315 -107.53758 32813 ft 498 kts 137°
2026-04-26 16:37 36.93103 -107.48820 32814 ft 498 kts 137°
2026-04-26 16:38 36.87224 -107.41942 32809 ft 498 kts 137°
2026-04-26 16:38 36.82178 -107.36050 32809 ft 498 kts 137°
2026-04-26 16:39 36.77122 -107.30157 32804 ft 498 kts 138°
2026-04-26 16:39 36.72070 -107.24281 32805 ft 498 kts 138°
2026-04-26 16:40 36.67006 -107.18401 32805 ft 498 kts 138°
2026-04-26 16:40 36.61946 -107.12537 32806 ft 498 kts 138°
2026-04-26 16:41 36.56881 -107.06679 32806 ft 498 kts 138°
2026-04-26 16:41 36.51836 -107.00854 32807 ft 498 kts 138°
2026-04-26 16:42 36.46759 -106.95003 32808 ft 498 kts 138°
2026-04-26 16:42 36.41683 -106.89166 32808 ft 498 kts 138°
2026-04-26 16:43 36.36609 -106.83340 32809 ft 498 kts 138°
2026-04-26 16:43 36.31565 -106.77560 32810 ft 498 kts 138°
2026-04-26 16:44 36.26481 -106.71744 32810 ft 498 kts 138°
2026-04-26 16:44 36.21397 -106.65939 32811 ft 498 kts 138°
2026-04-26 16:45 36.16307 -106.60139 32812 ft 498 kts 138°
2026-04-26 16:45 36.11221 -106.54353 32812 ft 498 kts 138°
2026-04-26 16:46 36.06138 -106.48583 32813 ft 498 kts 138°
2026-04-26 16:46 36.01047 -106.42813 32814 ft 498 kts 138°
2026-04-26 16:47 35.95951 -106.37048 32814 ft 498 kts 138°
2026-04-26 16:47 35.90856 -106.31294 32809 ft 498 kts 139°
2026-04-26 16:48 35.85759 -106.25550 32804 ft 498 kts 138°
2026-04-26 16:48 35.80671 -106.19826 32804 ft 498 kts 138°
2026-04-26 16:49 35.75568 -106.14095 32805 ft 498 kts 138°
2026-04-26 16:49 35.70462 -106.08358 32805 ft 498 kts 138°
2026-04-26 16:50 35.65332 -106.02615 32806 ft 498 kts 138°
2026-04-26 16:50 35.62042 -105.98939 32806 ft 498 kts 138°
2026-04-26 16:51 35.57857 -105.94271 32912 ft 498 kts 138°
2026-04-26 16:51 35.52754 -105.88586 32917 ft 499 kts 138°
2026-04-26 16:52 35.49350 -105.84800 32917 ft 498 kts 138°
2026-04-26 16:52 35.42503 -105.77197 32918 ft 498 kts 138°
2026-04-26 16:53 35.37402 -105.71545 32919 ft 498 kts 138°
2026-04-26 16:53 35.32259 -105.65857 32920 ft 498 kts 138°
2026-04-26 16:54 35.27153 -105.60220 32920 ft 498 kts 138°
2026-04-26 16:54 35.22012 -105.54555 32921 ft 498 kts 138°
2026-04-26 16:55 35.16862 -105.48888 32922 ft 498 kts 138°
2026-04-26 16:55 35.11737 -105.43259 32922 ft 498 kts 138°
2026-04-26 16:56 35.04031 -105.34830 32924 ft 498 kts 139°
2026-04-26 16:57 34.98872 -105.29191 32918 ft 498 kts 139°
2026-04-26 16:57 34.91175 -105.20794 32919 ft 498 kts 139°
2026-04-26 16:58 34.87716 -105.17027 32914 ft 498 kts 139°
2026-04-26 16:59 34.78296 -105.06791 32915 ft 498 kts 139°
2026-04-26 17:00 34.67991 -104.95633 32916 ft 498 kts 139°
2026-04-26 17:00 34.60222 -104.87246 32917 ft 498 kts 139°
2026-04-26 17:01 34.55080 -104.81706 32918 ft 498 kts 139°
2026-04-26 17:01 34.49895 -104.76131 32919 ft 498 kts 139°
2026-04-26 17:02 34.44725 -104.70580 32919 ft 498 kts 139°
2026-04-26 17:02 34.39566 -104.65051 32920 ft 498 kts 139°
2026-04-26 17:03 34.34414 -104.59539 32921 ft 498 kts 139°
2026-04-26 17:03 34.29232 -104.54005 32921 ft 498 kts 139°
2026-04-26 17:04 34.24039 -104.48470 32922 ft 498 kts 139°
2026-04-26 17:04 34.18879 -104.42976 32922 ft 498 kts 139°
2026-04-26 17:05 34.13690 -104.37463 32923 ft 498 kts 139°
2026-04-26 17:05 34.08492 -104.31948 32918 ft 498 kts 140°
2026-04-26 17:06 34.03296 -104.26447 32918 ft 498 kts 140°
2026-04-26 17:06 33.98096 -104.20950 32919 ft 498 kts 140°
2026-04-26 17:07 33.92931 -104.15500 32919 ft 498 kts 140°
2026-04-26 17:07 33.87719 -104.10008 32915 ft 498 kts 140°
2026-04-26 17:08 33.82512 -104.04530 32915 ft 498 kts 140°
2026-04-26 17:08 33.77338 -103.99098 32916 ft 498 kts 140°
2026-04-26 17:09 33.73854 -103.95445 32916 ft 498 kts 140°
2026-04-26 17:09 33.66909 -103.88174 32917 ft 498 kts 140°
2026-04-26 17:10 33.61724 -103.82757 32917 ft 498 kts 140°
2026-04-26 17:10 33.56522 -103.77331 32918 ft 498 kts 140°
2026-04-26 17:11 33.51282 -103.71874 32775 ft 500 kts 140°
2026-04-26 17:11 33.48692 -103.69180 32529 ft 499 kts 140°
2026-04-26 17:11 33.46067 -103.66453 32282 ft 499 kts 140°
2026-04-26 17:12 33.40867 -103.61056 31795 ft 498 kts 140°
2026-04-26 17:12 33.38245 -103.58337 31549 ft 498 kts 140°
2026-04-26 17:13 33.33025 -103.52934 31068 ft 498 kts 140°
2026-04-26 17:13 33.30405 -103.50224 30827 ft 499 kts 140°
2026-04-26 17:13 33.25193 -103.44841 30349 ft 500 kts 140°
2026-04-26 17:14 33.22567 -103.42132 30110 ft 500 kts 140°
2026-04-26 17:14 33.19062 -103.38523 29645 ft 499 kts 140°
2026-04-26 17:14 33.16459 -103.35844 29273 ft 492 kts 139°
2026-04-26 17:15 33.11336 -103.30573 28526 ft 489 kts 140°
2026-04-26 17:15 33.08760 -103.27927 28155 ft 491 kts 140°
2026-04-26 17:15 33.06174 -103.25275 27785 ft 492 kts 140°
2026-04-26 17:16 33.03583 -103.22617 27415 ft 493 kts 140°
2026-04-26 17:16 33.00986 -103.19956 27044 ft 494 kts 140°
2026-04-26 17:16 32.98385 -103.17293 26674 ft 494 kts 140°
2026-04-26 17:16 32.95782 -103.14630 26304 ft 495 kts 140°
2026-04-26 17:17 32.93024 -103.12326 25905 ft 490 kts 156°
2026-04-26 17:17 32.89955 -103.10702 25449 ft 477 kts 156°
2026-04-26 17:17 32.86987 -103.09057 24854 ft 468 kts 156°
2026-04-26 17:17 32.84082 -103.07420 24219 ft 460 kts 156°
2026-04-26 17:18 32.81224 -103.05804 23585 ft 452 kts 156°
2026-04-26 17:18 32.78417 -103.04215 22928 ft 446 kts 156°
2026-04-26 17:18 32.76808 -103.03313 22504 ft 442 kts 155°
2026-04-26 17:18 32.74063 -103.01771 21757 ft 434 kts 154°
2026-04-26 17:19 32.69088 -102.98943 19982 ft 370 kts 154°
2026-04-26 17:19 32.66849 -102.97678 19086 ft 349 kts 154°
2026-04-26 17:19 32.64727 -102.96480 18194 ft 333 kts 154°
2026-04-26 17:20 32.62694 -102.95333 17305 ft 320 kts 154°
2026-04-26 17:20 32.62024 -102.94955 17006 ft 316 kts 154°
2026-04-26 17:20 32.58818 -102.93150 15543 ft 305 kts 154°
2026-04-26 17:20 32.56934 -102.92088 14667 ft 301 kts 154°
2026-04-26 17:21 32.55080 -102.91044 14000 ft 292 kts 154°
2026-04-26 17:21 32.53267 -102.90024 13932 ft 289 kts 154°
2026-04-26 17:21 32.51446 -102.88998 13922 ft 290 kts 154°
2026-04-26 17:21 32.49705 -102.88017 13978 ft 263 kts 155°
2026-04-26 17:22 32.48079 -102.87106 13954 ft 254 kts 154°
2026-04-26 17:22 32.46501 -102.86217 13938 ft 250 kts 154°
2026-04-26 17:22 32.44902 -102.85319 13269 ft 262 kts 154°
2026-04-26 17:22 32.43267 -102.84404 12514 ft 261 kts 154°
2026-04-26 17:23 32.41642 -102.83494 11784 ft 259 kts 154°
2026-04-26 17:23 32.40033 -102.82592 11065 ft 257 kts 154°
2026-04-26 17:23 32.38435 -102.81696 10349 ft 255 kts 154°
2026-04-26 17:23 32.36853 -102.80810 9637 ft 253 kts 154°
2026-04-26 17:24 32.35284 -102.79931 8930 ft 251 kts 154°
2026-04-26 17:24 32.33726 -102.79059 8225 ft 249 kts 154°
2026-04-26 17:24 32.32185 -102.78197 7526 ft 247 kts 154°
2026-04-26 17:24 32.30652 -102.77338 6828 ft 245 kts 154°
2026-04-26 17:25 32.29133 -102.76489 6134 ft 243 kts 154°
2026-04-26 17:25 32.27628 -102.75647 5444 ft 241 kts 154°
2026-04-26 17:25 32.26138 -102.74815 4911 ft 231 kts 154°
2026-04-26 17:25 32.24744 -102.74036 4827 ft 217 kts 154°
2026-04-26 17:26 32.23394 -102.73282 4815 ft 214 kts 154°
2026-04-26 17:26 32.22046 -102.72530 4818 ft 215 kts 154°
2026-04-26 17:26 32.20689 -102.71772 4819 ft 216 kts 154°
2026-04-26 17:26 32.19326 -102.71012 4818 ft 217 kts 154°
2026-04-26 17:27 32.17962 -102.70251 4818 ft 217 kts 154°
2026-04-26 17:27 32.16601 -102.69492 4816 ft 214 kts 154°
2026-04-26 17:27 32.15319 -102.68778 4794 ft 195 kts 154°
2026-04-26 17:27 32.14157 -102.68063 4842 ft 186 kts 146°
2026-04-26 17:28 32.13108 -102.67181 4818 ft 185 kts 145°
2026-04-26 17:28 32.12055 -102.66307 4818 ft 185 kts 144°
2026-04-26 17:28 32.11001 -102.65427 4818 ft 186 kts 144°
2026-04-26 17:28 32.09945 -102.64545 4818 ft 186 kts 144°
2026-04-26 17:29 32.08919 -102.63615 4800 ft 187 kts 133°
2026-04-26 17:29 32.08654 -102.63203 4801 ft 186 kts 123°
2026-04-26 17:29 32.07409 -102.61134 4818 ft 187 kts 126°
2026-04-26 17:29 32.06781 -102.59808 4792 ft 186 kts 103°
2026-04-26 17:30 32.06883 -102.58296 4737 ft 188 kts 81°
2026-04-26 17:30 32.06870 -102.56763 4610 ft 186 kts 94°
2026-04-26 17:30 32.06688 -102.55260 4637 ft 185 kts 101°
2026-04-26 17:30 32.06373 -102.53786 4638 ft 186 kts 106°
2026-04-26 17:31 32.05977 -102.52331 4639 ft 186 kts 109°
2026-04-26 17:31 32.05530 -102.50897 4639 ft 186 kts 110°
2026-04-26 17:31 32.05059 -102.49496 4638 ft 186 kts 112°
2026-04-26 17:31 32.04563 -102.48085 4638 ft 186 kts 112°
2026-04-26 17:32 32.04057 -102.46680 4638 ft 186 kts 113°
2026-04-26 17:32 32.03543 -102.45272 4567 ft 187 kts 113°
2026-04-26 17:32 32.03028 -102.43871 4580 ft 185 kts 113°
2026-04-26 17:32 32.02513 -102.42476 4580 ft 186 kts 113°
2026-04-26 17:33 32.02002 -102.41097 4580 ft 186 kts 113°
2026-04-26 17:33 32.01487 -102.39703 4623 ft 186 kts 113°
2026-04-26 17:33 32.00967 -102.38302 4617 ft 186 kts 113°
2026-04-26 17:34 31.99932 -102.35510 4770 ft 186 kts 113°
2026-04-26 17:34 31.99409 -102.34112 4817 ft 187 kts 114°
2026-04-26 17:34 31.98882 -102.32709 4820 ft 187 kts 114°
2026-04-26 17:34 31.98358 -102.31294 4667 ft 189 kts 114°
2026-04-26 17:35 31.97839 -102.29894 4442 ft 188 kts 114°
2026-04-26 17:35 31.97336 -102.28546 4239 ft 169 kts 114°
2026-04-26 17:35 31.96883 -102.27325 3962 ft 156 kts 114°
2026-04-26 17:35 31.96465 -102.26202 3731 ft 143 kts 114°
2026-04-26 17:36 31.96075 -102.25155 3539 ft 137 kts 114°
2026-04-26 17:36 31.95701 -102.24148 3367 ft 135 kts 114°
2026-04-26 17:36 31.95322 -102.23132 3192 ft 136 kts 114°
2026-04-26 17:36 31.94939 -102.22102 3012 ft 136 kts 114°
2026-04-26 17:37 31.94560 -102.21079 2879 ft 133 kts 113°
2026-04-26 17:37 31.94317 -102.20435 2878 ft 48 kts 115°
2026-04-26 17:37 31.94220 -102.20167 2878 ft 29 kts 115°
2026-04-26 17:38 31.94030 -102.19947 2878 ft 0 kts 166°
2026-04-26 17:38 31.94017 -102.19943 2878 ft 9 kts 167°
2026-04-26 17:39 31.93909 -102.19933 2878 ft 16 kts 178°
2026-04-26 17:39 31.93833 -102.19992 2878 ft 12 kts 255°
2026-04-26 17:39 31.93831 -102.20110 2878 ft 19 kts 271°
2026-04-26 17:39 31.93831 -102.20261 2878 ft 16 kts 269°
2026-04-26 17:40 31.93830 -102.20394 2878 ft 17 kts 268°
2026-04-26 17:40 31.93827 -102.20444 2878 ft 18 kts 264°
2026-04-26 17:40 31.93728 -102.20620 2878 ft 10 kts 216°
2026-04-26 17:40 31.93701 -102.20679 2878 ft 6 kts 270°
2026-04-26 17:41 31.93701 -102.20702 2878 ft 0 kts 268°